Location: Julian California
(33.0790°N, 116.6010°W)
Time: 09:51:52
(UTC-07:00)

Daily predictions for brighter satellites

Satellite Brightness Start Highest point End
(mag) Time Altitude Azimuth Time Altitude Azimuth Time Altitude Azimuth
Cosmos 2251 Rocket 3.7 20:03:18 10° S 20:08:25 53° ESE 20:13:36 10° NNE
Cosmos 2333 Rocket 2.7 20:03:05 10° SSW 20:08:40 67° WNW 20:14:18 10° NNE
H-2A R/B 3.4 20:10:36 10° SE 20:14:17 40° ENE 20:18:00 10° N
Cosmos 1844 Rocket 3.3 20:14:13 10° NNW 20:19:45 59° WSW 20:25:15 10° S
Cosmos 1975 3.4 20:17:47 10° NNW 20:21:44 61° W 20:25:38 10° S
Cosmos 1844 3.9 20:16:22 10° NNW 20:22:09 79° WSW 20:27:55 10° SSE
ERS-1 Rocket 3.8 20:17:45 10° SE 20:22:11 33° ENE 20:26:38 10° N
Cosmos 1606 Rocket 4.0 20:21:17 10° N 20:25:29 42° E 20:29:39 10° SSE
FENGYUN 3A 3.7 20:20:36 10° SSE 20:25:53 65° ENE 20:31:13 10° N
Hubble Space Telescope 2.8 20:25:29 10° WSW 20:28:09 17° SSW 20:30:49 10° SSE
H-2A R/B 3.1 20:25:32 10° SE 20:29:07 28° ENE 20:32:47 10° NNE
ATLAS CENTAUR R/B 3.4 20:31:33 10° SW 20:36:08 40° WNW 20:40:53 10° NNE
Resurs 01 Rocket 4.3 20:38:05 10° SW 20:41:04 18° W 20:44:05 10° NW
Cosmos 2237 Rocket 4.0 20:40:01 10° SW 20:45:04 35° WNW 20:50:11 10° N
GEOS 3 Rocket 3.7 20:44:04 12° SSE 20:49:03 82° WSW 20:54:18 10° NW
USA 186 2.7 20:47:49 10° S 20:50:40 42° W 20:53:23 10° NNW
PSLV R/B 3.2 20:47:12 10° WSW 20:50:43 81° SSE 20:54:16 10° ENE
Atlas Centaur 2 3.2 20:44:54 10° SW 20:51:59 48° SSE 21:00:02 10° E
Aureole 2 Rocket 2.7 20:48:57 10° S 20:52:59 59° ESE 20:56:42 10° NNE
Cosmos 1025 Rocket 4.1 20:49:33 10° SSW 20:53:47 48° W 20:58:02 10° N
ISS -1.2 20:51:50 10° S 20:52:25 13° S 20:52:25 13° S
CZ-4 DEB 4.1 20:52:31 10° S 20:55:34 39° W 20:58:36 10° NNW
Cosmos 2228 3.7 20:51:57 10° NNE 20:56:04 38° E 20:58:26 21° SE
Cosmos 1939 Rocket 3.4 20:54:30 20° SE 20:57:00 42° ENE 21:00:56 10° N
Cosmos 2278 Rocket 2.7 20:51:29 10° NNW 20:57:03 58° WSW 21:02:34 10° S
Cosmos 494 Rocket 4.0 20:52:10 10° SSW 20:57:15 80° WNW 21:02:23 10° NNE
Cosmos 1892 Rocket 4.0 20:53:54 10° SSW 20:58:16 66° W 21:02:42 10° N
Meteor 1-15 Rocket 4.5 20:55:32 10° N 21:00:57 50° E 21:04:44 20° SSE
COSMOS 2455 3.4 20:57:44 10° S 21:03:04 35° ESE 21:08:25 10° NE
Milstar 3 Cent rocket 3.0 20:58:05 10° W 21:05:28 42° SSW 21:08:18 23° SE
CZ-4 SHROUD 4.0 21:07:20 31° E 21:07:54 33° ENE 21:10:47 10° N
SPOT 5 3.3 21:06:10 25° ESE 21:08:09 38° ENE 21:12:12 10° N
Cosmos 1666 3.0 21:04:31 10° N 21:08:18 49° E 21:09:51 30° SE
Lacrosse 5 rocket 4.4 21:07:30 10° W 21:10:01 16° NW 21:12:36 10° N
Cosmos 2369 Rocket 4.4 21:09:50 10° NE 21:10:44 10° NE 21:11:37 10° ENE
OTV 4 2.3 21:08:52 10° W 21:11:02 18° SSW 21:11:32 18° SSW
SL-16 R/B 3.2 21:06:40 10° SW 21:12:05 48° WNW 21:17:33 10° N
Nimbus 7 Rocket 4.4 21:11:50 10° NNE 21:17:49 88° WNW 21:23:41 10° SSW
Gbstr 26 Del rocket 4.5 21:10:35 10° NW 21:18:07 88° NE 21:23:16 25° SE
Cosmos 1743 4.1 21:16:25 10° NNW 21:19:57 36° W 21:23:26 10° SSW
Tsikada Rocket 4.0 21:18:41 15° S 21:24:06 68° E 21:30:27 10° NNE
Cosmos 1331 Rocket 4.2 21:19:00 10° NNW 21:24:10 68° WSW 21:27:27 22° S
BREEZE M DEB (TANK) 4.2 21:28:04 10° N 21:28:23 10° N 21:28:43 10° NNE
Cosmos 1513 Rocket 4.4 21:22:41 10° N 21:29:00 85° E 21:33:02 23° S
ALOS 4.4 21:25:34 10° SSW 21:29:13 23° W 21:32:54 10° NW
GRACE-1 4.1 21:26:55 10° N 21:29:24 59° NE 21:29:24 59° NE
GRACE-2 4.2 21:27:21 10° N 21:29:49 58° NE 21:29:49 58° NE
SeaSat 1 2.5 21:29:57 36° SE 21:31:54 67° ENE 21:36:48 10° NNW
MetOp-B 4.3 21:30:22 34° SE 21:32:28 56° ENE 21:37:41 10° N
Cosmos 1515 4.5 21:33:52 35° ENE 21:33:52 35° ENE 21:36:57 10° NNE
Cosmos 1302 Rocket 3.9 21:28:20 10° NNW 21:33:35 82° ENE 21:35:46 36° SSE
Terra 3.9 21:35:13 12° ENE 21:35:26 12° ENE 21:37:18 10° NE
CZ-2C R/B 3.7 21:36:59 10° WSW 21:37:20 10° W 21:37:42 10° W
Cosmos 2058 Rocket 4.3 21:34:40 10° NNW 21:38:42 37° W 21:41:48 15° SSW
IUS-17 SRM-1 4.4 21:35:19 10° WSW 21:39:02 51° S 21:45:10 25° ESE
Cosmos 2285 Rocket 4.3 21:32:50 10° NNW 21:39:05 66° WSW 21:43:00 24° S
Cosmos 1603 3.8 21:35:14 10° SSW 21:40:50 76° WNW 21:46:27 10° NNE
CZ-4B R/B 3.4 21:35:45 10° NNE 21:40:50 77° ESE 21:43:33 29° S
Cosmos 1602 Rocket 4.0 21:38:30 18° SSW 21:41:39 62° W 21:46:06 10° N
PSLV R/B 3.4 21:41:56 66° W 21:41:56 66° W 21:44:56 10° NNW
UNK 4.3 21:40:46 10° N 21:46:12 77° WNW 21:51:19 13° SSW
APEX 3.8 21:42:19 10° NNW 21:46:38 80° WSW 21:48:20 44° S
Cosmos 1825 Rocket 4.2 21:47:30 40° ENE 21:47:30 40° ENE 21:51:17 10° NNE
Cosmos 1461 3.0 21:43:15 10° NNW 21:47:25 54° ENE 21:47:38 53° ENE
Timation 1 Rocket 4.2 21:44:22 10° NNW 21:50:25 83° ENE 21:52:25 44° SSE
Cosmos 1812 Rocket 3.4 21:52:15 10° N 21:56:39 89° ESE 21:57:06 72° S
YAOGAN 6 2.8 21:59:25 67° N 21:59:25 67° N 22:02:43 10° N
Centaur D AC-28 3.3 21:56:47 10° WSW 21:58:43 21° SW 21:58:43 21° SW
USA 245 4.3 21:58:01 46° SSE 21:59:56 78° ENE 22:05:33 10° N
Envisat 3.8 22:00:03 28° SSW 22:02:19 44° W 22:07:09 10° NNW
H-2A R/B 4.3 22:02:37 12° SW 22:05:07 18° W 22:08:06 10° NW
Cosmos 1943 3.1 22:05:17 56° SSE 22:06:20 70° ESE 22:11:59 10° NNE
Cosmos 407 Rocket 4.1 22:07:33 40° ENE 22:07:33 40° ENE 22:11:33 10° NNE
OAO 3 Copernicus 4.1 22:03:02 10° WNW 22:08:05 80° SSW 22:08:18 78° SSE
ATLAS 3B R/B 2.9 22:03:51 27° S 22:08:14 64° ESE 22:15:45 10° NE
Abrixas rocket 3.6 22:07:19 10° NW 22:09:36 39° NW 22:09:36 39° NW
Cosmos 1634 Rocket 3.9 22:05:34 10° N 22:11:41 63° E 22:12:36 56° ESE
USA 81 3.9 22:13:30 10° N 22:18:48 83° E 22:19:05 79° SE
USA 234 3.2 22:17:55 53° ESE 22:19:38 81° NE 22:26:14 10° NW
Cosmos 1943 Rocket 4.1 22:20:01 10° NNE 22:23:25 16° ENE 22:23:46 16° ENE
CZ-4C R/B 4.1 22:27:06 55° N 22:27:06 55° N 22:30:24 10° N
Cosmos 489 Rocket 4.3 22:27:12 68° SSE 22:27:51 74° ESE 22:34:12 10° NNE
Cosmos 1953 Rocket 4.1 22:32:44 55° NNW 22:32:44 55° NNW 22:36:15 10° N
Cosmos 2279 Rocket 4.1 22:31:13 10° N 22:37:18 58° E 22:37:18 58° E
H-2A R/B 2.3 22:40:36 55° NNE 22:40:36 55° NNE 22:44:44 10° N
Atlas Centaur 2 2.9 22:33:35 10° WSW 22:41:40 73° S 22:43:36 56° ESE
Cosmos 1992 Rocket 4.2 22:41:23 10° NNW 22:46:04 65° WNW 22:46:04 65° WNW
COSMOS 2455 4.5 22:43:42 10° WSW 22:48:56 31° WNW 22:54:12 10° N
ARGOS 3.9 22:52:25 43° WSW 22:52:37 43° W 22:57:45 10° NNW
Cosmos 2369 Rocket 2.3 22:49:53 10° NNW 22:54:55 71° N 22:54:55 71° N
DMSP B5D2-2 4.4 22:56:57 10° N 23:01:37 62° NW 23:01:37 62° NW
Lacrosse 4 Rocket 3.5 23:07:36 24° NNW 23:07:36 24° NNW 23:09:37 10° N
COSMOS 2406 4.3 23:14:45 35° NE 23:14:45 35° NE 23:18:06 10° NNE
Terra 3.0 23:14:06 40° NW 23:14:06 40° NW 23:17:19 10° NNW
Cosmos 1092 Rocket 4.4 23:37:34 60° NNE 23:37:34 60° NNE 23:42:39 10° N
CZ-4C R/B 4.3 23:53:07 17° NE 23:53:07 17° NE 23:54:34 10° NE
